Погода в Преображенском

Россия / Ивановская область     56°39′01″N   41°49′59″E
темп.,
°C
ветер,
м/с
пор.,
м/с
влажн.,
%
обл.,
%
осадки,
мм/ч
давл.,
гПа
погр.,
м
25 июня, сб
сб2500:00+15с22805 0.0 101523
03:00+14с258424 0.0 101786
06:00+17ссз24756 0.0 1017142
09:00+23ссз35580 0.0 1018677
12:00+26ссз464439 0.0 10182201
15:00+25ссз4553100 0.0 10181349
18:00+25ссз366285 0.0 1018735
21:00+21сз277678 0.0 1018173
26 июня, вс
вс2600:00+19с237771 0.0 101951
03:00+17с128669 0.0 102013
06:00+19св2379100 0.0 1021178
09:00+23св12540 0.0 1021619
12:00+26св22450 0.0 10211171
15:00+27с24445 0.0 10201450
18:00+26с24570 0.0 1020878
21:00+20юз11800 0.0 101911
27 июня, пн
пн2700:00+19юз25825 0.0 101978
03:00+18зюз39858 0.0 1018171
06:00+21з310790 0.0 1018301
09:00+25сз48530 0.0 1017601
12:00+28ссз57480 0.0 10171283
15:00+28ссз57440 0.0 10172050
18:00+25ссв47617 0.0 1018588
21:00+18ссв39940 0.8 1019251
28 июня, вт
вт2800:00+13ссв36845 0.0 1021114
03:00+10ссв38845 0.0 1022167
06:00+13ссв310680 0.0 1023350
09:00+16св46500 0.0 10241088
12:00+19ссв46380 0.0 10241629
15:00+20с45343 0.0 10241823
18:00+19с35430 0.0 10231783
21:00+13ссв22690 0.0 102434
29 июня, ср
ср2900:00+10ссв24720 0.0 102566
03:00+8ссв24720 0.0 102661
06:00+11ссв256396 0.0 1026183
09:00+17ссв34430 0.0 1026992
12:00+20ссв34320 0.0 10261835
15:00+21с34315 0.0 10251868
18:00+20сз34455 0.0 10241292
21:00+14сз357196 0.0 102495